Regional Weather Roundup
Issued by NWS Newport/Morehead, NC

Home | Current Version | Previous Version | Text Only | Print | Product List | Glossary On
Versions: 1 2 3 4 5 6 7 8 9 10 11 12 13 14 15 16 17 18 19 20 21 22 23 24 25 26 27 28 29 30 31 32 33 34 35 36 37 38 39 40 41 42 43 44 45 46 47 48 49 50
000
ASUS42 KMHX 221113
RWRMHX
WEATHER ROUNDUP FOR EASTERN NORTH CAROLINA
NATIONAL WEATHER SERVICE NEWPORT/MOREHEAD CITY NC
600 AM EST SUN JAN 22 2017

NOTE: "FAIR" INDICATES FEW OR NO CLOUDS BELOW 12,000 FEET
WITH NO SIGNIFICANT WEATHER AND/OR OBSTRUCTIONS TO VISIBILITY

NCZ015>017-031-032-045>047-102-103-221200-
NORTH COAST

CITY           SKY/WX    TMP DP  RH WIND       PRES   REMARKS
EDENTON        FOG       55  55 100 CALM      29.63R VSB 1/4
ELIZABETH CITY FOG       54  54 100 CALM      29.62R VSB 1/4
KITTY HAWK     NOT AVBL
MANTEO         MOCLDY    56  56 100 W6        29.61R FOG

$$

NCZ045>047-081-094-103-104-221200-
CENTRAL COAST

CITY           SKY/WX    TMP DP  RH WIND       PRES   REMARKS
FRISCO         CLEAR     58  55  90 W10       29.64S FOG

$$

NCZ095-097-098-100-101-221200-
SOUTHERN COAST

CITY           SKY/WX    TMP DP  RH WIND       PRES   REMARKS
BEAUFORT       CLOUDY    59  58  96 SW10      29.67R
CEDAR ISLAND   NOT AVBL
JACKSONVILLE   CLOUDY    59  59 100 SW8       29.67R
PINEY ISLAND   PTSUNNY  N/A N/A N/A SW10      29.66R
WILMINGTON     CLOUDY    59  58  96 SW8       29.68R


$$

NCZ011>013-027>030-043-044-078>080-089-090>093-098-221200-
COASTAL PLAIN

CITY           SKY/WX    TMP DP  RH WIND       PRES   REMARKS
AHOSKIE        FOG       50  50  99 CALM      29.66R VSB 3/4
CLINTON        CLOUDY    60  59  96 SW5       29.67R
ELIZABETHTOWN  CLOUDY    60  58  95 SW5       29.69R
GOLDSBORO      CLOUDY    61  61 100 W6        29.62S
GREENVILLE     CLOUDY    61  61 100 W5        29.67R
HAVELOCK       CLOUDY    59  56  89 SW6       29.67R
KENANSVILLE    CLOUDY    61  59  94 SW5       29.67R
KINSTON        CLOUDY    61  59  94 SW5       29.64S
NEW BERN       CLOUDY    59  57  93 SW6       29.66R
RICHLANDS      CLOUDY    59  58  96 SW7       29.67R
ROCKY MOUNT    CLOUDY    54  54 100 NW7       29.65R FOG
WASHINGTON     CLOUDY    59  58  99 SW5         N/A
WHITEVILLE     CLOUDY    61  57  88 W3        29.69R

$$

AMZ130-135-150-152-154-156-158-170-250-252-270-ANZ085-086-088-633-658-670-221200-
MARINE OBSERVATIONS

STATION/POSITION TIME  TEMP    WIND        PRES    WAVE   SWELL
                       AIR SEA DIR/SP/G            HT/PER HT/PER
                 (UTC) (F)     (DEG/KT/KT) (MB)    (FT/S) (FT/S)
CHESAPEAKE LIGHT NOT AVBL
64 E VA BEACH    1050   59 58  260/ 10/ 12 1001.2    6/ 6   7/ 6
DUCK             1048   58 45  250/  7/  9 1001.9
2 E DUCK         1030      46                N/A     3/12   2/12
OREGON INLET     1042   51 51  190/  7/  8 1002.7
13E OREGON INLT  NOT AVBL
HATTERAS CG      1048   58 54  220/  9/ 13 1003.2
DIAMOND BUOY     1050   66 73  250/ 23/ 27 1003.3    6/ 5   3/11
CAPE LOOKOUT     1000   59     250/ 11/ 14 1004.0
BEAUFORT LAB     1048   59 52  240/  4/  9 1003.6
30 SE NEW RVR IN 1008   61 65  270/ 16/ 21 1004.6
30 SE NEW RVR IN 1043      65                N/A     5/ 6   2/11
27 SE WRIGHTSVLE 1008   63 67  260/ 14/ 19 1004.6
5 SE WRIGHTSVLE  1008   57     240/  8/ 10 1004.7
225 S CAPE HAT   1050   72 71  200/ 19/ 23 1007.2    7/ 7   2/11
41 SE CHARLESTON 0950   67 69  250/ 17/ 23 1004.9    5/ 6   2/10

$$




USA.gov is the U.S. government's official web portal to all federal, state and local government web resources and services.